QPF
0.00 0.00 0.01 0.01 0.01 0.01 0.01 0.01 0.01 0.01 0.01 0.02 0.01 0.01 0.01 0.01 0.01 0.01 0.01 0.01 0.01 0.01 0.01 0.01 0.01 0.01 0.01 0.00 0.00 0.00 0.00 0.00 0.00 0.00 0.01 0.01 0.01 0.00 0.00 0.00 0.00 0.00 0.00
0.00 0.00 0.00 0.01 0.01 0.02 0.01 0.01 0.01 0.01 0.01 0.01 0.01 0.01 0.00 0.00 0.01 0.01 0.01 0.01 0.01 0.01 0.01 0.01 0.01 0.01 0.01 0.00 0.00 0.00 0.00 0.00 0.00 0.00 0.00 0.00 0.00 0.00 0.00 0.00 0.00 0.00 0.00
0.00 0.00 0.00 0.01 0.01 0.02 0.01 0.01 0.01 0.01 0.00 0.00 0.00 0.00 0.00 0.00 0.00 0.00 0.00 0.00 0.00 0.00 0.00 0.00 0.00 0.00 0.00 0.00 0.00 0.00 0.00 0.00 0.00 0.00 0.00 0.00 0.00 0.00 0.00 0.00 0.00 0.00 0.00
0.00 0.00 0.00 0.01 0.01 0.01 0.01 0.01 0.01 0.01 0.01 0.00 0.00 0.00 0.00 0.00 0.00 0.00 0.00 0.00 0.00 0.00 0.00 0.00 0.00 0.00 0.00 0.00 0.00 0.00 0.00 0.00 0.00 0.00 0.00 0.00 0.00 0.00 0.00 0.00 0.00 0.00 0.00
0.00 0.00 0.00 0.00 0.01 0.01 0.01 0.01 0.01 0.01 0.01 0.00 0.00 0.00 0.00 0.00 0.00 0.00 0.00 0.00 0.00 0.00 0.00 0.00 0.00 0.00 0.00 0.00 0.00 0.00 0.00 0.00 0.00 0.00 0.00 0.00 0.00 0.00 0.00 0.00 0.00 0.00 0.00
0.00 0.00 0.00 0.00 0.01 0.01 0.01 0.01 0.01 0.01 0.00 0.00 0.00 0.00 0.00 0.00 0.00 0.00 0.00 0.00 0.00 0.00 0.00 0.00 0.00 0.00 0.00 0.00 0.00 0.00 0.00 0.00 0.00 0.00 0.00 0.00 0.00 0.00 0.00 0.00 0.00 0.00 0.00
0.00 0.00 0.00 0.00 0.01 0.01 0.01 0.01 0.01 0.00 0.00 0.00 0.00 0.00 0.00 0.00 0.00 0.00 0.00 0.00 0.00 0.00 0.00 0.00 0.00 0.00 0.00 0.00 0.00 0.00 0.00 0.00 0.00 0.00 0.00 0.00 0.00 0.00 0.00 0.00 0.00 0.00 0.00
0.00 0.00 0.00 0.00 0.01 0.01 0.01 0.01 0.01 0.00 0.00 0.00 0.00 0.00 0.00 0.00 0.00 0.00 0.00 0.00 0.00 0.00 0.00 0.00 0.00 0.00 0.00 0.00 0.00 0.00 0.00 0.00 0.00 0.00 0.00 0.00 0.00 0.00 0.00 0.00 0.00 0.00 0.00
0.00 0.00 0.00 0.00 0.00 0.01 0.00 0.00 0.00 0.00 0.00 0.00 0.00 0.00 0.00 0.00 0.00 0.00 0.00 0.00 0.00 0.00 0.00 0.00 0.00 0.00 0.00 0.00 0.00 0.00 0.00 0.00 0.00 0.00 0.00 0.00 0.00 0.00 0.00 0.00 0.00 0.00 0.00
0.00 0.00 0.00 0.00 0.00 0.00 0.00 0.00 0.00 0.00 0.00 0.00 0.00 0.00 0.00 0.00 0.00 0.00 0.00 0.00 0.00 0.00 0.00 0.00 0.00 0.00 0.00 0.00 0.00 0.00 0.00 0.00 0.00 0.00 0.00 0.00 0.00 0.00 0.00 0.00 0.00 0.00 0.00
0.00 0.00 0.00 0.00 0.00 0.00 0.00 0.00 0.00 0.00 0.00 0.00 0.00 0.00 0.00 0.00 0.00 0.00 0.00 0.00 0.00 0.00 0.00 0.00 0.00 0.00 0.00 0.00 0.00 0.00 0.00 0.00 0.00 0.00 0.00 0.00 0.00 0.00 0.00 0.00 0.00 0.01 0.01
0.00 0.00 0.00 0.00 0.00 0.00 0.00 0.00 0.00 0.00 0.00 0.00 0.00 0.00 0.00 0.00 0.00 0.00 0.00 0.00 0.00 0.00 0.00 0.00 0.00 0.00 0.00 0.00 0.00 0.00 0.00 0.00 0.00 0.00 0.00 0.00 0.00 0.00 0.00 0.00 0.01 0.01 0.01
0.00 0.00 0.00 0.00 0.00 0.00 0.00 0.00 0.00 0.00 0.00 0.00 0.00 0.00 0.00 0.00 0.00 0.00 0.00 0.00 0.00 0.00 0.00 0.00 0.00 0.00 0.00 0.00 0.00 0.00 0.00 0.00 0.00 0.00 0.00 0.00 0.00 0.00 0.00 0.00 0.01 0.01 0.01
0.00 0.00 0.00 0.00 0.00 0.00 0.00 0.00 0.00 0.00 0.00 0.00 0.00 0.00 0.00 0.00 0.00 0.00 0.00 0.00 0.00 0.00 0.00 0.00 0.00 0.00 0.00 0.00 0.00 0.00 0.00 0.00 0.00 0.00 0.00 0.00 0.00 0.00 0.00 0.00 0.00 0.01 0.01
0.00 0.00 0.00 0.00 0.00 0.00 0.00 0.00 0.00 0.00 0.00 0.00 0.00 0.00 0.00 0.00 0.00 0.00 0.00 0.00 0.00 0.00 0.00 0.00 0.00 0.00 0.00 0.00 0.00 0.00 0.00 0.00 0.00 0.00 0.00 0.00 0.00 0.00 0.00 0.00 0.01 0.00 0.01
0.00 0.00 0.00 0.00 0.00 0.00 0.00 0.00 0.00 0.00 0.00 0.00 0.00 0.00 0.00 0.00 0.00 0.00 0.00 0.00 0.00 0.00 0.00 0.00 0.00 0.00 0.00 0.00 0.00 0.00 0.00 0.00 0.00 0.00 0.00 0.00 0.00 0.00 0.00 0.00 0.00 0.00 0.00
0.00 0.00 0.00 0.00 0.00 0.00 0.00 0.00 0.00 0.00 0.00 0.00 0.00 0.00 0.00 0.00 0.00 0.00 0.00 0.00 0.00 0.00 0.00 0.00 0.00 0.00 0.00 0.00 0.00 0.00 0.00 0.00 0.00 0.00 0.00 0.00 0.00 0.00 0.00 0.00 0.00 0.00 0.00
0.00 0.00 0.00 0.00 0.00 0.00 0.00 0.00 0.00 0.00 0.00 0.00 0.00 0.00 0.00 0.00 0.00 0.00 0.00 0.00 0.00 0.00 0.00 0.00 0.00 0.00 0.00 0.00 0.00 0.00 0.00 0.00 0.00 0.00 0.00 0.00 0.00 0.00 0.00 0.00 0.00 0.00 0.00
0.00 0.00 0.00 0.00 0.00 0.00 0.00 0.00 0.00 0.00 0.00 0.00 0.00 0.00 0.00 0.00 0.00 0.00 0.00 0.00 0.00 0.00 0.00 0.00 0.00 0.00 0.00 0.00 0.00 0.00 0.00 0.00 0.00 0.00 0.00 0.00 0.00 0.00 0.00 0.00 0.00 0.00 0.00
0.00 0.00 0.00 0.00 0.00 0.00 0.00 0.00 0.00 0.00 0.00 0.00 0.00 0.00 0.00 0.00 0.00 0.00 0.00 0.00 0.00 0.00 0.00 0.00 0.00 0.00 0.00 0.00 0.00 0.00 0.00 0.00 0.00 0.00 0.00 0.00 0.00 0.00 0.00 0.00 0.00 0.00 0.00
0.00 0.00 0.00 0.00 0.00 0.00 0.00 0.00 0.00 0.00 0.00 0.00 0.00 0.00 0.00 0.00 0.00 0.01 0.01 0.00 0.00 0.00 0.00 0.00 0.00 0.00 0.00 0.00 0.00 0.00 0.00 0.00 0.00 0.00 0.00 0.00 0.00 0.00 0.00 0.00 0.00 0.00 0.00
0.00 0.00 0.00 0.00 0.00 0.00 0.00 0.00 0.00 0.00 0.00 0.00 0.00 0.00 0.00 0.00 0.01 0.01 0.00 0.00 0.00 0.00 0.00 0.00 0.00 0.00 0.00 0.00 0.00 0.00 0.00 0.00 0.00 0.00 0.00 0.00 0.00 0.00 0.00 0.00 0.00 0.00 0.00
0.00 0.00 0.00 0.00 0.00 0.00 0.00 0.00 0.00 0.00 0.00 0.00 0.00 0.00 0.00 0.01 0.01 0.01 0.00 0.00 0.00 0.00 0.00 0.00 0.00 0.00 0.00 0.00 0.00 0.00 0.00 0.00 0.00 0.00 0.00 0.00 0.00 0.00 0.00 0.00 0.00 0.00 0.00
0.00 0.00 0.00 0.00 0.00 0.00 0.00 0.00 0.00 0.00 0.00 0.00 0.00 0.00 0.00 0.00 0.01 0.00 0.00 0.00 0.00 0.00 0.00 0.00 0.00 0.00 0.00 0.00 0.00 0.00 0.00 0.00 0.00 0.00 0.00 0.00 0.00 0.00 0.00 0.00 0.00 0.00 0.00
0.00 0.00 0.00 0.00 0.00 0.00 0.00 0.00 0.00 0.00 0.00 0.00 0.00 0.00 0.00 0.00 0.00 0.00 0.00 0.00 0.00 0.01 0.00 0.00 0.00 0.00 0.00 0.00 0.00 0.00 0.00 0.00 0.00 0.00 0.00 0.00 0.00 0.00 0.00 0.00 0.00 0.00 0.00
0.00 0.00 0.00 0.00 0.00 0.00 0.00 0.00 0.00 0.00 0.00 0.00 0.00 0.00 0.00 0.00 0.00 0.00 0.00 0.01 0.01 0.01 0.00 0.00 0.00 0.00 0.00 0.00 0.00 0.00 0.00 0.00 0.00 0.00 0.00 0.00 0.00 0.00 0.00 0.00 0.00 0.00 0.00
MSLP
1017.27 1017.05 1016.96 1017.04 1017.29 1017.65 1018.06 1018.44 1018.72 1018.87 1018.91 1018.86 1018.78 1018.74 1018.75 1018.83 1018.97 1019.12 1019.25 1019.34 1019.36 1019.33 1019.28 1019.23 1019.19 1019.19 1019.22 1019.25 1019.26 1019.23 1019.16 1019.04 1018.89 1018.74 1018.61 1018.50 1018.43 1018.38 1018.34 1018.28 1018.18 1018.05 1017.88
1016.82 1016.66 1016.64 1016.78 1017.09 1017.50 1017.96 1018.37 1018.69 1018.89 1018.97 1018.98 1018.97 1018.99 1019.06 1019.20 1019.38 1019.57 1019.72 1019.83 1019.86 1019.85 1019.81 1019.76 1019.72 1019.71 1019.72 1019.73 1019.72 1019.67 1019.59 1019.47 1019.33 1019.19 1019.07 1018.98 1018.91 1018.87 1018.82 1018.75 1018.66 1018.53 1018.38
1016.35 1016.26 1016.31 1016.52 1016.89 1017.36 1017.85 1018.31 1018.67 1018.91 1019.05 1019.12 1019.18 1019.25 1019.38 1019.56 1019.77 1019.97 1020.14 1020.25 1020.29 1020.28 1020.23 1020.18 1020.15 1020.13 1020.13 1020.12 1020.10 1020.06 1019.98 1019.88 1019.76 1019.65 1019.55 1019.47 1019.41 1019.34 1019.28 1019.20 1019.09 1018.97 1018.83
1015.93 1015.92 1016.04 1016.33 1016.75 1017.27 1017.80 1018.29 1018.68 1018.96 1019.15 1019.27 1019.38 1019.51 1019.67 1019.88 1020.09 1020.30 1020.45 1020.55 1020.59 1020.57 1020.53 1020.49 1020.45 1020.43 1020.43 1020.43 1020.41 1020.38 1020.33 1020.26 1020.19 1020.11 1020.03 1019.95 1019.87 1019.79 1019.69 1019.57 1019.45 1019.32 1019.20
1015.62 1015.69 1015.89 1016.24 1016.71 1017.26 1017.81 1018.31 1018.72 1019.02 1019.24 1019.40 1019.55 1019.72 1019.91 1020.12 1020.33 1020.52 1020.66 1020.74 1020.77 1020.75 1020.72 1020.68 1020.65 1020.64 1020.65 1020.65 1020.66 1020.66 1020.65 1020.62 1020.58 1020.53 1020.47 1020.40 1020.30 1020.17 1020.03 1019.87 1019.72 1019.58 1019.47
1015.44 1015.58 1015.85 1016.26 1016.78 1017.33 1017.88 1018.37 1018.77 1019.07 1019.30 1019.49 1019.67 1019.86 1020.07 1020.29 1020.49 1020.66 1020.78 1020.85 1020.87 1020.85 1020.82 1020.80 1020.79 1020.80 1020.82 1020.85 1020.88 1020.90 1020.92 1020.93 1020.93 1020.91 1020.86 1020.77 1020.64 1020.47 1020.28 1020.07 1019.88 1019.73 1019.63
1015.37 1015.59 1015.93 1016.39 1016.91 1017.46 1017.98 1018.43 1018.80 1019.09 1019.33 1019.53 1019.73 1019.95 1020.18 1020.40 1020.60 1020.76 1020.86 1020.92 1020.93 1020.93 1020.92 1020.91 1020.92 1020.95 1020.99 1021.03 1021.07 1021.12 1021.16 1021.19 1021.21 1021.21 1021.16 1021.06 1020.90 1020.69 1020.44 1020.19 1019.96 1019.78 1019.68
1015.41 1015.69 1016.08 1016.56 1017.08 1017.60 1018.07 1018.47 1018.80 1019.06 1019.30 1019.52 1019.76 1020.00 1020.25 1020.49 1020.69 1020.85 1020.94 1021.00 1021.02 1021.02 1021.03 1021.05 1021.09 1021.13 1021.17 1021.22 1021.26 1021.31 1021.35 1021.39 1021.42 1021.41 1021.36 1021.25 1021.06 1020.81 1020.53 1020.23 1019.97 1019.77 1019.65
1015.48 1015.81 1016.24 1016.72 1017.22 1017.70 1018.11 1018.46 1018.75 1019.00 1019.24 1019.49 1019.76 1020.05 1020.33 1020.60 1020.81 1020.97 1021.06 1021.11 1021.14 1021.16 1021.19 1021.23 1021.28 1021.33 1021.38 1021.42 1021.44 1021.46 1021.49 1021.51 1021.52 1021.51 1021.45 1021.32 1021.12 1020.86 1020.55 1020.23 1019.94 1019.72 1019.59
1015.54 1015.91 1016.36 1016.84 1017.31 1017.74 1018.11 1018.41 1018.66 1018.90 1019.16 1019.45 1019.77 1020.11 1020.44 1020.73 1020.96 1021.12 1021.22 1021.27 1021.30 1021.33 1021.37 1021.43 1021.49 1021.54 1021.58 1021.59 1021.58 1021.57 1021.55 1021.54 1021.52 1021.49 1021.42 1021.29 1021.10 1020.84 1020.53 1020.21 1019.91 1019.68 1019.53
1015.53 1015.93 1016.40 1016.87 1017.33 1017.72 1018.04 1018.32 1018.56 1018.81 1019.10 1019.44 1019.81 1020.20 1020.57 1020.89 1021.13 1021.29 1021.38 1021.43 1021.46 1021.49 1021.54 1021.61 1021.67 1021.72 1021.73 1021.71 1021.66 1021.60 1021.53 1021.47 1021.42 1021.37 1021.29 1021.17 1021.00 1020.77 1020.48 1020.18 1019.89 1019.66 1019.49
1015.42 1015.85 1016.33 1016.81 1017.25 1017.62 1017.93 1018.20 1018.45 1018.73 1019.06 1019.45 1019.87 1020.31 1020.71 1021.04 1021.29 1021.44 1021.52 1021.55 1021.57 1021.60 1021.65 1021.72 1021.78 1021.82 1021.81 1021.76 1021.67 1021.56 1021.43 1021.33 1021.24 1021.17 1021.09 1020.99 1020.85 1020.65 1020.42 1020.16 1019.90 1019.67 1019.49
1015.20 1015.65 1016.15 1016.64 1017.08 1017.46 1017.78 1018.06 1018.34 1018.65 1019.03 1019.46 1019.93 1020.39 1020.81 1021.14 1021.38 1021.52 1021.58 1021.59 1021.60 1021.62 1021.67 1021.74 1021.80 1021.83 1021.81 1021.74 1021.61 1021.45 1021.29 1021.14 1021.02 1020.93 1020.85 1020.77 1020.67 1020.53 1020.35 1020.15 1019.93 1019.73 1019.55
1014.84 1015.31 1015.84 1016.35 1016.82 1017.22 1017.57 1017.89 1018.21 1018.57 1018.98 1019.44 1019.93 1020.40 1020.82 1021.14 1021.36 1021.48 1021.53 1021.53 1021.53 1021.55 1021.60 1021.67 1021.73 1021.77 1021.74 1021.66 1021.51 1021.33 1021.13 1020.95 1020.80 1020.69 1020.62 1020.56 1020.49 1020.41 1020.29 1020.15 1019.99 1019.82 1019.66
1014.34 1014.85 1015.40 1015.95 1016.46 1016.91 1017.31 1017.68 1018.05 1018.45 1018.89 1019.36 1019.85 1020.31 1020.71 1021.01 1021.22 1021.32 1021.36 1021.36 1021.37 1021.40 1021.46 1021.54 1021.62 1021.66 1021.65 1021.57 1021.42 1021.23 1021.02 1020.82 1020.65 1020.53 1020.45 1020.40 1020.36 1020.32 1020.25 1020.17 1020.06 1019.93 1019.79
1013.72 1014.25 1014.84 1015.43 1015.99 1016.51 1016.97 1017.41 1017.83 1018.27 1018.72 1019.20 1019.66 1020.10 1020.46 1020.75 1020.94 1021.05 1021.09 1021.12 1021.15 1021.21 1021.30 1021.40 1021.50 1021.57 1021.57 1021.51 1021.38 1021.19 1020.98 1020.78 1020.60 1020.46 1020.37 1020.32 1020.29 1020.27 1020.25 1020.21 1020.14 1020.06 1019.95
1013.01 1013.55 1014.17 1014.80 1015.43 1016.02 1016.56 1017.07 1017.55 1018.02 1018.49 1018.94 1019.37 1019.77 1020.11 1020.37 1020.56 1020.69 1020.77 1020.85 1020.93 1021.03 1021.16 1021.29 1021.42 1021.51 1021.55 1021.51 1021.41 1021.25 1021.06 1020.86 1020.68 1020.53 1020.42 1020.35 1020.31 1020.29 1020.28 1020.26 1020.23 1020.18 1020.10
1012.24 1012.78 1013.42 1014.10 1014.79 1015.46 1016.09 1016.68 1017.22 1017.72 1018.19 1018.62 1019.02 1019.37 1019.68 1019.93 1020.14 1020.30 1020.45 1020.59 1020.73 1020.89 1021.07 1021.25 1021.41 1021.52 1021.59 1021.59 1021.52 1021.40 1021.24 1021.06 1020.88 1020.72 1020.59 1020.49 1020.42 1020.38 1020.36 1020.34 1020.33 1020.30 1020.24
1011.45 1011.99 1012.64 1013.35 1014.10 1014.85 1015.57 1016.24 1016.84 1017.38 1017.85 1018.27 1018.63 1018.95 1019.23 1019.48 1019.72 1019.93 1020.15 1020.37 1020.59 1020.82 1021.04 1021.25 1021.44 1021.58 1021.68 1021.71 1021.69 1021.61 1021.49 1021.34 1021.18 1021.02 1020.86 1020.73 1020.62 1020.54 1020.49 1020.45 1020.43 1020.40 1020.36
1010.72 1011.23 1011.87 1012.61 1013.41 1014.24 1015.04 1015.79 1016.46 1017.04 1017.52 1017.92 1018.26 1018.55 1018.81 1019.07 1019.34 1019.61 1019.90 1020.20 1020.49 1020.78 1021.05 1021.29 1021.50 1021.66 1021.78 1021.85 1021.87 1021.84 1021.78 1021.67 1021.54 1021.38 1021.21 1021.05 1020.89 1020.76 1020.66 1020.58 1020.53 1020.49 1020.45
1010.08 1010.56 1011.18 1011.93 1012.77 1013.65 1014.53 1015.35 1016.09 1016.71 1017.21 1017.61 1017.93 1018.20 1018.46 1018.73 1019.02 1019.35 1019.70 1020.07 1020.43 1020.77 1021.07 1021.33 1021.55 1021.73 1021.86 1021.96 1022.03 1022.06 1022.05 1022.01 1021.91 1021.77 1021.60 1021.41 1021.21 1021.02 1020.87 1020.74 1020.65 1020.58 1020.52
1009.58 1010.02 1010.61 1011.34 1012.19 1013.11 1014.05 1014.93 1015.73 1016.39 1016.92 1017.33 1017.64 1017.91 1018.16 1018.44 1018.77 1019.14 1019.54 1019.96 1020.36 1020.73 1021.06 1021.33 1021.55 1021.73 1021.89 1022.02 1022.14 1022.23 1022.29 1022.31 1022.27 1022.16 1022.00 1021.79 1021.56 1021.32 1021.10 1020.92 1020.78 1020.67 1020.58
1009.26 1009.65 1010.19 1010.88 1011.72 1012.64 1013.60 1014.53 1015.37 1016.07 1016.63 1017.05 1017.38 1017.65 1017.91 1018.20 1018.55 1018.94 1019.38 1019.84 1020.27 1020.66 1021.00 1021.27 1021.49 1021.68 1021.85 1022.02 1022.18 1022.34 1022.47 1022.56 1022.57 1022.52 1022.37 1022.17 1021.91 1021.63 1021.36 1021.12 1020.92 1020.77 1020.64
1009.10 1009.45 1009.92 1010.56 1011.34 1012.24 1013.19 1014.13 1014.98 1015.72 1016.30 1016.75 1017.09 1017.38 1017.66 1017.97 1018.33 1018.75 1019.21 1019.69 1020.14 1020.54 1020.88 1021.15 1021.38 1021.57 1021.76 1021.96 1022.17 1022.39 1022.59 1022.74 1022.83 1022.82 1022.71 1022.51 1022.25 1021.94 1021.63 1021.34 1021.09 1020.88 1020.70
1009.10 1009.39 1009.79 1010.35 1011.05 1011.88 1012.79 1013.70 1014.55 1015.30 1015.91 1016.38 1016.75 1017.07 1017.37 1017.70 1018.09 1018.53 1019.01 1019.50 1019.96 1020.37 1020.72 1021.00 1021.23 1021.44 1021.65 1021.88 1022.13 1022.40 1022.66 1022.87 1023.01 1023.05 1022.98 1022.81 1022.54 1022.23 1021.89 1021.55 1021.25 1020.99 1020.77
1009.21 1009.45 1009.78 1010.23 1010.83 1011.57 1012.39 1013.25 1014.07 1014.80 1015.42 1015.92 1016.33 1016.68 1017.02 1017.39 1017.81 1018.28 1018.78 1019.29 1019.76 1020.18 1020.53 1020.83 1021.07 1021.30 1021.53 1021.79 1022.08 1022.38 1022.68 1022.94 1023.13 1023.21 1023.17 1023.02 1022.78 1022.46 1022.10 1021.74 1021.40 1021.09 1020.82
Thickness
5735 5736 5734 5732 5730 5728 5726 5725 5724 5723 5722 5721 5720 5719 5718 5717 5716 5715 5715 5714 5713 5712 5710 5709 5709 5708 5707 5707 5706 5705 5704 5703 5702 5702 5701 5701 5700 5700 5699 5699 5699 5699 5699
5740 5736 5734 5731 5729 5726 5725 5723 5722 5720 5719 5718 5717 5716 5714 5713 5712 5711 5710 5709 5708 5707 5706 5704 5703 5702 5701 5701 5700 5699 5698 5697 5695 5694 5694 5694 5694 5693 5693 5692 5692 5692 5692
5740 5736 5733 5730 5728 5725 5723 5721 5720 5718 5717 5715 5714 5712 5711 5709 5708 5707 5706 5704 5703 5702 5700 5699 5698 5696 5695 5695 5694 5693 5692 5690 5689 5688 5687 5687 5687 5687 5686 5686 5685 5685 5685
5739 5735 5732 5730 5727 5724 5722 5720 5718 5716 5714 5713 5711 5709 5707 5706 5704 5702 5701 5699 5698 5696 5695 5693 5692 5691 5690 5689 5688 5687 5686 5684 5682 5681 5681 5680 5680 5680 5679 5679 5678 5678 5677
5738 5734 5732 5729 5726 5723 5721 5718 5716 5714 5712 5710 5708 5706 5704 5702 5700 5698 5696 5695 5693 5691 5690 5688 5687 5686 5684 5683 5682 5681 5679 5677 5676 5675 5674 5674 5674 5674 5673 5672 5671 5671 5671
5737 5734 5731 5728 5725 5722 5720 5717 5714 5712 5710 5707 5705 5702 5700 5698 5696 5694 5692 5690 5688 5686 5685 5683 5682 5680 5679 5678 5676 5675 5673 5671 5670 5669 5668 5667 5667 5667 5666 5666 5665 5664 5664
5736 5732 5729 5727 5724 5721 5718 5715 5712 5710 5707 5704 5702 5699 5697 5694 5692 5689 5687 5685 5683 5681 5680 5678 5676 5675 5674 5672 5671 5669 5667 5665 5664 5663 5661 5661 5661 5661 5660 5659 5659 5658 5657
5736 5732 5728 5725 5722 5719 5716 5713 5710 5707 5704 5702 5699 5696 5693 5690 5687 5685 5683 5680 5678 5676 5675 5673 5671 5669 5668 5667 5665 5663 5661 5660 5658 5656 5655 5655 5654 5654 5654 5653 5652 5652 5651
5734 5730 5727 5724 5721 5717 5714 5711 5708 5704 5701 5698 5695 5692 5689 5686 5684 5681 5678 5676 5674 5672 5670 5668 5666 5664 5662 5661 5659 5658 5656 5654 5652 5650 5649 5648 5648 5647 5647 5646 5645 5645 5644
5731 5729 5726 5723 5719 5716 5712 5709 5705 5702 5699 5695 5692 5688 5685 5682 5680 5677 5674 5671 5669 5667 5665 5663 5661 5659 5657 5655 5654 5652 5650 5648 5646 5644 5643 5642 5641 5641 5640 5639 5638 5638 5638
5727 5726 5724 5721 5717 5714 5710 5707 5703 5699 5696 5692 5688 5685 5681 5678 5675 5672 5669 5667 5664 5662 5660 5658 5656 5653 5652 5650 5648 5646 5644 5642 5641 5639 5637 5636 5635 5634 5633 5632 5631 5631 5630
5726 5725 5723 5720 5716 5712 5708 5704 5700 5697 5693 5689 5685 5681 5677 5674 5671 5668 5665 5662 5660 5657 5655 5652 5650 5648 5646 5644 5642 5641 5639 5637 5635 5633 5631 5629 5628 5627 5626 5625 5625 5624 5623
5729 5725 5722 5719 5714 5710 5706 5702 5698 5694 5690 5686 5682 5678 5674 5670 5667 5663 5660 5657 5655 5652 5650 5647 5645 5642 5640 5639 5637 5635 5633 5631 5629 5627 5625 5623 5621 5620 5619 5618 5617 5617 5616
5727 5725 5722 5718 5713 5709 5704 5700 5695 5691 5687 5683 5679 5675 5670 5666 5663 5659 5656 5653 5650 5647 5644 5642 5639 5637 5635 5633 5631 5629 5627 5625 5623 5621 5619 5617 5615 5613 5612 5611 5610 5609 5608
5727 5725 5722 5717 5713 5707 5702 5698 5693 5689 5684 5680 5676 5671 5667 5663 5658 5655 5651 5648 5645 5642 5639 5636 5634 5631 5629 5627 5625 5623 5621 5619 5617 5614 5612 5610 5608 5606 5605 5604 5602 5601 5599
5728 5726 5722 5717 5713 5707 5702 5697 5692 5686 5681 5676 5672 5668 5663 5659 5655 5651 5647 5643 5640 5638 5635 5631 5628 5626 5623 5621 5619 5616 5614 5612 5610 5608 5606 5603 5601 5599 5597 5595 5594 5592 5590
5731 5728 5723 5718 5712 5707 5701 5695 5690 5684 5679 5674 5669 5665 5660 5656 5651 5647 5642 5639 5636 5633 5629 5626 5623 5620 5617 5615 5612 5610 5608 5606 5604 5601 5599 5596 5594 5591 5589 5587 5585 5583 5581
5731 5727 5723 5719 5712 5706 5700 5694 5688 5682 5676 5672 5667 5662 5657 5652 5648 5643 5638 5635 5631 5628 5624 5620 5617 5613 5610 5607 5605 5603 5601 5599 5597 5594 5592 5589 5586 5583 5581 5578 5576 5574 5572
5732 5728 5722 5718 5712 5705 5699 5692 5686 5680 5674 5669 5664 5659 5654 5649 5644 5639 5634 5630 5627 5622 5618 5615 5611 5607 5603 5600 5598 5596 5594 5592 5590 5587 5584 5581 5578 5575 5572 5570 5567 5565 5563
5732 5727 5722 5717 5710 5703 5695 5688 5681 5675 5670 5665 5661 5656 5651 5645 5640 5635 5630 5625 5621 5617 5612 5608 5604 5601 5597 5593 5591 5589 5586 5584 5582 5579 5576 5573 5570 5567 5564 5561 5559 5556 5554
5728 5724 5719 5713 5707 5700 5691 5684 5677 5672 5667 5662 5657 5652 5647 5642 5636 5631 5626 5620 5616 5611 5607 5603 5598 5594 5589 5586 5582 5578 5576 5575 5573 5569 5567 5564 5561 5558 5555 5552 5550 5548 5545
5725 5722 5717 5712 5706 5700 5693 5686 5678 5671 5664 5659 5653 5648 5643 5638 5632 5627 5622 5616 5611 5606 5601 5597 5592 5586 5582 5578 5573 5568 5564 5563 5562 5560 5557 5555 5552 5549 5546 5544 5541 5539 5537
5721 5719 5716 5710 5704 5698 5691 5681 5671 5663 5656 5651 5647 5643 5639 5634 5629 5623 5618 5612 5607 5601 5596 5591 5587 5581 5575 5570 5566 5561 5555 5552 5549 5549 5548 5545 5542 5539 5537 5535 5532 5530 5528
5719 5716 5712 5707 5701 5694 5687 5678 5670 5663 5657 5652 5646 5640 5634 5629 5624 5619 5613 5608 5602 5597 5592 5586 5582 5577 5571 5564 5559 5555 5551 5546 5541 5539 5537 5536 5533 5531 5528 5526 5524 5522 5520
5715 5711 5707 5702 5696 5690 5684 5677 5669 5662 5656 5647 5641 5634 5629 5624 5619 5614 5609 5603 5598 5592 5587 5582 5576 5571 5566 5560 5554 5549 5543 5538 5534 5529 5526 5524 5523 5522 5520 5518 5516 5513 5511
5707 5704 5700 5695 5690 5684 5679 5673 5666 5659 5651 5642 5636 5630 5624 5618 5614 5609 5604 5599 5593 5588 5582 5577 5572 5567 5561 5556 5550 5544 5539 5532 5527 5521 5517 5515 5513 5513 5512 5510 5508 5505 5502